Location: Proctor
(47.8934°N, 114.3048°W)
Time: 16:16:47
(UTC+00:00)

Transit 4A - Pass Details

Date: 14 May 2025
Orbit: 866 x 975 km, 66.8° (Epoch: 13 June)

Event Time Altitude Azimuth Distance (km) Brightness Sun altitude
Rises 05:21:35 0° 254° (WSW) 3,662 11.2 -17.1°
Reaches altitude 10° 05:24:34 10° 266° (W) 2,710 10.7 -17.4°
Maximum altitude 05:29:56 28° 324° (NW) 1,710 10.1 -17.9°
Drops below altitude 10° 05:35:16 10° 23° (NNE) 2,670 10.8 -18.3°
Sets 05:38:11 0° 34° (NE) 3,599 11.3 -18.6°
